Change the Weather History Date:

Wednesday, April 24, 2013

  Actual Average Record
Temperature  
Mean Temperature 56 °F -  
Max Temperature 75 °F 54 °F 81 °F (2001)
Min Temperature 36 °F 26 °F 21 °F (2002)
Degree Days  
Heating Degree Days 10    
Growing Degree Days 6 (Base 50)    
Moisture  
Dew Point 36 °F    
Average Humidity 61    
Maximum Humidity 89    
Minimum Humidity 20    
Precipitation  
Precipitation 0.00 in - - ()
Sea Level Pressure  
Sea Level Pressure 29.92 in    
Wind  
Wind Speed 5 mph (SSE)    
Max Wind Speed 12 mph    
Max Gust Speed 21 mph    
Visibility 10 miles    
Events      
Averages and records for this station are not official NWS values.
T = Trace of Precipitation, MM = Missing Value Source: NWS Daily Summary

Daily Weather History Graph

Daily Weather History Graph

Search for Another Location

Airport or City:

Trip Planner

Search our weather history database for the weather conditions in past years. The results will help you decide how hot, cold, wet, or windy it might be!

Date:

Astronomy

Apr. 24, 2013 Rise Set
Actual Time 5:47 AM EDT 7:42 PM EDT
Civil Twilight 5:16 AM EDT 8:13 PM EDT
Nautical Twilight 4:38 AM EDT 8:51 PM EDT
Astronomical Twilight 3:56 AM EDT 9:33 PM EDT
Moon 6:40 PM EDT (4/24) 4:51 AM EDT (4/24)
Length of Visible Light 14h 57m
Length of Day
13h 54m
Waxing Gibbous, 98% of the Moon is Illuminated
Apr 24
Waxing Gibbous
Apr 25
Full
May 2
Last Quarter
May 9
New
May 18
First Quarter

Hourly Weather History & Observations

Time (EDT) Temp. Windchill Dew Point Humidity Pressure Visibility Wind Dir Wind Speed Gust Speed Precip Events Conditions
12:52 AM 42.1 °F 37.1 °F 36.0 °F 79% 30.14 in 10.0 mi East 8.1 mph 16.1 mph N/A   Clear
1:52 AM 43.0 °F 37.7 °F 36.0 °F 76% 30.11 in 10.0 mi East 9.2 mph - N/A   Clear
2:52 AM 43.0 °F 37.7 °F 37.0 °F 80% 30.09 in 10.0 mi East 9.2 mph - N/A   Mostly Cloudy
3:01 AM 42.8 °F 38.0 °F 37.4 °F 81% 30.06 in 10.0 mi East 8.1 mph 19.6 mph N/A   Scattered Clouds
3:16 AM 37.4 °F 32.8 °F 33.8 °F 87% 30.06 in 10.0 mi South 5.8 mph - N/A   Mostly Cloudy
3:52 AM 37.9 °F 35.5 °F 33.1 °F 83% 30.08 in 10.0 mi SE 3.5 mph - N/A   Overcast
4:52 AM 37.0 °F - 34.0 °F 89% 30.07 in 10.0 mi Calm Calm - N/A   Overcast
5:52 AM 36.0 °F - 33.1 °F 89% 30.08 in 10.0 mi Calm Calm - N/A   Overcast
5:59 AM 37.4 °F - 33.8 °F 87% 30.06 in 10.0 mi Calm Calm - N/A   Overcast
6:52 AM 37.9 °F - 34.0 °F 86% 30.07 in 10.0 mi Calm Calm - N/A   Overcast
7:36 AM 37.4 °F - 33.8 °F 87% 30.02 in 10.0 mi Calm Calm - N/A   Overcast
7:52 AM 39.0 °F 36.8 °F 35.1 °F 86% 30.04 in 10.0 mi West 3.5 mph - N/A   Overcast
8:34 AM 41.0 °F - 35.6 °F 81% 29.99 in 10.0 mi Calm Calm - N/A   Partly Cloudy
8:52 AM 44.1 °F 41.5 °F 37.0 °F 76% 30.02 in 10.0 mi WNW 4.6 mph - N/A   Clear
9:19 AM 46.4 °F 42.4 °F 37.4 °F 71% 29.99 in 10.0 mi SE 8.1 mph - N/A   Mostly Cloudy
9:31 AM 46.4 °F 44.3 °F 37.4 °F 71% 29.98 in 10.0 mi SSE 4.6 mph - N/A   Scattered Clouds
9:52 AM 48.9 °F - 39.0 °F 69% 30.00 in 10.0 mi ENE 4.6 mph - N/A   Clear
10:52 AM 53.1 °F - 39.9 °F 61% 29.95 in 10.0 mi Calm Calm - N/A   Clear
11:52 AM 59.0 °F - 41.0 °F 51% 29.91 in 10.0 mi Calm Calm - N/A   Clear
12:52 PM 66.0 °F - 42.1 °F 42% 29.86 in 10.0 mi Variable 3.5 mph - N/A   Clear
2:52 PM 72.0 °F - 37.0 °F 28% 29.75 in 10.0 mi North 3.5 mph - N/A   Clear
3:52 PM 75.0 °F - 36.0 °F 24% 29.74 in 10.0 mi West 9.2 mph - N/A   Clear
4:52 PM 75.0 °F - 34.0 °F 22% 29.73 in 10.0 mi West 8.1 mph - N/A   Clear
5:52 PM 73.9 °F - 30.0 °F 20% 29.72 in 10.0 mi SW 6.9 mph 17.3 mph N/A   Mostly Cloudy
6:52 PM 72.0 °F - 32.0 °F 23% 29.72 in 10.0 mi SSW 3.5 mph - N/A   Clear
7:52 PM 69.1 °F - 34.0 °F 27% 29.72 in 10.0 mi Variable 3.5 mph - N/A   Overcast
8:52 PM 66.9 °F - 36.0 °F 32% 29.72 in 10.0 mi Calm Calm - N/A   Overcast
9:52 PM 68.0 °F - 37.0 °F 32% 29.70 in 10.0 mi South 10.4 mph - N/A   Overcast
10:52 PM 66.0 °F - 37.9 °F 36% 29.69 in 10.0 mi South 10.4 mph 20.7 mph N/A   Overcast
11:52 PM 66.0 °F - 41.0 °F 40% 29.67 in 10.0 mi South 11.5 mph 18.4 mph N/A   Overcast